User: anonymous   Login
Location: Ar Ranvel
(48.3000°N, 4.8833°W)
Time: 16:06:08
(UTC+00:00)
Language:

SL-16 R/B - Orbit

View from above orbital plane
View from above orbital plane
View from above satellite
View from above satellite

Ground track
Ground track

The orbit data is extracted from the following two-line orbital elements,

1 31793U 07029B   21269.68592385 -.00000067  00000-0 -98480-5 0  9996
2 31793  70.9791 346.9671 0002894 277.2185 195.3586 14.14453871735560
Epoch (UTC): 26 September 2021 16:27:43
Eccentricity: 0.0002894
inclination: 70.9791°
perigee height: 842 km
apogee height: 846 km
right ascension of ascending node: 346.9671°
argument of perigee: 277.2185°
revolutions per day: 14.14453871
mean anomaly at epoch: 195.3586°
orbit number at epoch: 73556

The dashed part of the orbit path shows where the satellite is in the earth's shadow,  

DLR